Location: Graveson
(43.8513°N, 4.7719°E)
Time: 01:55:13
(UTC+00:00)

Daily predictions for brighter satellites

Satellite Brightness Start Highest point End
(mag) Time Altitude Azimuth Time Altitude Azimuth Time Altitude Azimuth
Cosmos 1464 Rocket 3.9 00:08:47 78° E 00:08:49 78° E 00:15:04 10° N
Cosmos 2333 4.4 00:05:12 10° NNW 00:10:14 65° NW 00:10:14 65° NW
Lacrosse 4 Rocket 2.9 00:13:01 36° N 00:13:01 36° N 00:15:41 10° NNE
Cosmos 2219 Rocket 2.3 00:05:49 10° NNW 00:11:13 75° NNE 00:11:13 75° NNE
Cosmos 1354 Rocket 4.3 00:16:38 62° NE 00:16:38 62° NE 00:21:10 10° NNE
Cosmos 968 Rocket 3.9 00:19:13 55° NNW 00:19:13 55° NNW 00:23:37 10° NNE
Cosmos 2322 Rocket 4.2 00:15:25 10° WNW 00:17:43 17° W 00:17:43 17° W
COSMOS 2428 2.7 00:23:54 10° NNW 00:29:11 76° NW 00:29:11 76° NW
SL-16 R/B 3.6 00:28:37 27° ESE 00:31:10 39° ENE 00:36:54 10° N
Nadezhda 4 Rocket 3.9 00:28:34 10° N 00:34:55 83° E 00:35:18 78° SE
Cosmos 2360 Rocket 3.8 00:30:30 10° NW 00:33:24 22° WNW 00:33:24 22° WNW
Cosmos 2034 Rocket 3.8 00:35:41 83° S 00:35:57 88° E 00:42:17 10° N
CZ-2D R/B 3.3 00:32:56 10° NNE 00:37:49 32° E 00:38:05 32° ESE
Okean 2 Rocket 3.9 00:41:46 49° NNE 00:41:46 49° NNE 00:45:08 10° NNE
Meteor 2-9 Rocket 4.4 00:41:29 58° WNW 00:41:29 58° WNW 00:46:49 10° N
GEOS 3 Rocket 3.6 00:37:35 10° NE 00:42:46 80° ENE 00:42:46 80° ENE
Cosmos 2297 Rocket 3.0 00:45:36 40° ESE 00:45:36 40° ESE 00:50:44 10° NE
Cosmos 2219 3.7 00:45:50 47° ESE 00:45:50 47° ESE 00:51:01 10° NE
ADEOS II 4.3 00:43:07 10° NE 00:46:03 15° E 00:47:27 14° ESE
Cosmos 1092 Rocket 4.1 00:40:47 10° N 00:47:00 65° E 00:48:01 56° SE
Cosmos 1975 Rocket 4.5 00:42:53 10° NNW 00:45:36 32° NW 00:45:36 32° NW
Cosmos 1777 Rocket 4.4 00:49:00 55° E 00:49:00 55° E 00:53:49 10° NNE
Cosmos 1980 4.1 00:43:04 10° NNW 00:48:42 58° ENE 00:49:51 49° ESE
Cosmos 2333 Rocket 2.9 00:43:47 10° NW 00:48:11 43° WNW 00:48:11 43° WNW
Helios 1B rocket 3.7 00:46:08 10° N 00:48:49 36° NNW 00:48:49 36° NNW
Cosmos 44 Rocket 3.7 00:51:03 10° NW 00:55:08 60° NNW 00:55:08 60° NNW
Cosmos 1300 Rocket 4.3 00:57:53 49° N 00:57:53 49° N 01:01:06 10° N
Cosmos 2237 Rocket 2.4 00:53:07 10° NNW 00:58:47 65° ENE 00:59:51 53° ESE
Okean 1 Rocket 4.2 01:01:02 35° ENE 01:01:02 35° ENE 01:04:37 10° NNE
ATLAS 3B CENTAUR R/B 4.4 01:13:44 31° SSE 01:13:44 31° SSE 01:19:09 10° ESE
Cosmos 2151 Rocket 4.0 01:12:29 57° NNW 01:12:29 57° NNW 01:16:06 10° N
Meteor 1-12 Rocket 4.3 01:11:28 66° WSW 01:11:54 69° WNW 01:17:55 10° N
Timation 2 Rocket 3.9 01:14:34 63° WSW 01:15:25 72° WNW 01:21:30 10° NNE
In-Cosmos 22 4.0 01:13:31 10° NNW 01:19:08 74° W 01:19:15 73° WSW
Meteor 1-15 Rocket 4.2 01:22:53 66° SSE 01:23:39 78° E 01:29:17 10° NNE
Cosmos 1805 4.1 01:24:26 46° ENE 01:24:26 46° ENE 01:27:34 10° NNE
SJ 16-02 2.6 01:25:10 32° ESE 01:25:18 32° E 01:29:14 10° NE
ERBS 4.4 01:24:44 10° NNW 01:27:37 27° NNE 01:30:28 10° E
Meteor 2-13 Rocket 4.4 01:27:20 10° NNW 01:33:21 65° W 01:34:11 58° SW
Cosmos 2227 Rocket 2.1 01:33:34 66° S 01:34:24 84° ESE 01:40:06 10° NNE
Cosmos 1538 Rocket 3.8 01:30:37 10° NNW 01:35:47 73° WSW 01:35:50 73° WSW
MOZ.5/SAFIR/RUBIN 5/SL-8 4.3 01:37:00 46° WNW 01:37:00 46° WNW 01:40:55 10° NNW
Cosmos 1025 Rocket 4.5 01:33:38 10° NNW 01:36:08 27° NW 01:36:08 27° NW
Resurs 1-4 Rocket 2.0 01:33:28 10° N 01:38:46 77° WNW 01:39:24 67° SW
Cosmos 1674 3.6 01:37:11 10° NNW 01:39:47 43° NNW 01:39:47 43° NNW
Cosmos 1733 3.6 01:42:54 58° ENE 01:42:54 58° ENE 01:46:20 10° NNE
NOSS 0 Rocket 4.4 01:39:08 10° NW 01:44:40 40° W 01:44:40 40° W
Cosmos 2279 Rocket 3.9 01:44:46 49° S 01:46:36 86° E 01:52:50 10° N
Cosmos 1461 4.1 01:47:03 32° ESE 01:47:18 32° ESE 01:51:19 10° NE
COBE Rocket 3.9 01:47:34 47° SE 01:48:47 69° ENE 01:53:24 10° N
USA 215 3.2 01:42:46 10° NE 01:49:19 74° SE 01:51:29 45° SSW
Cosmos 2026 Rocket 4.0 01:44:07 10° NNW 01:50:02 57° W 01:51:09 49° SW
Cosmos 1634 Rocket 4.2 01:50:26 46° WSW 01:51:49 55° WNW 01:57:57 10° N
Cosmos 2219 Rocket 4.2 01:51:30 10° WNW 01:52:54 14° WNW 01:52:54 14° WNW
SL-24 R/B 4.4 01:53:41 50° SSE 01:54:55 78° E 01:59:53 10° N
Cosmos 2082 3.7 01:53:29 49° S 01:54:58 71° ESE 02:00:34 10° NNE
Cosmos 2344 4.4 01:46:42 10° NW 01:56:33 73° WSW 02:10:20 10° SSE
SL-4 R/B 2.8 01:58:02 19° NW 02:00:11 42° NNE 02:03:26 10° E
Meteor 1-24 Rocket 3.5 02:00:57 10° N 02:06:28 86° E 02:08:55 34° SSE
SL-16 R/B 2.2 02:01:42 10° NNW 02:07:26 83° ENE 02:12:32 13° SSE
CBERS-1 3.9 02:02:27 10° NNE 02:07:37 88° ESE 02:09:09 47° SSW
Cosmos 1937 Rocket 4.5 02:06:56 25° SSE 02:09:27 41° ESE 02:14:25 10° NE
Meteor 2-5 Rocket 3.6 02:04:33 10° NNW 02:10:10 68° W 02:11:59 42° SSW
Cosmos 1898 Rocket 3.8 02:11:41 36° S 02:13:43 62° ESE 02:18:53 10° NNE
SL-16 R/B 3.1 02:13:42 35° WSW 02:14:44 38° W 02:20:32 10° NNW
ARIANE 5 R/B 3.2 02:10:00 10° NNE 02:15:04 49° E 02:18:02 24° SSE
NPP 4.2 02:11:48 10° N 02:16:54 44° WNW 02:18:22 36° WSW
CZ-2D R/B 3.0 02:12:51 10° N 02:17:52 38° WNW 02:19:24 32° W
IDEFIX/ARIANE 42P 3.9 02:13:10 10° NNE 02:17:54 34° E 02:21:55 13° SSE
Cosmos 1680 Rocket 3.4 02:13:52 10° NNW 02:19:08 90° WSW 02:22:58 19° SSE
NOSS 3-1 (C) 3.6 02:17:24 34° S 02:19:36 57° ESE 02:25:38 10° NE
USA 267 3.8 02:14:34 10° ESE 02:20:59 62° NNE 02:27:26 10° NW
Cosmos 1544 Rocket 4.1 02:20:01 30° SSE 02:22:02 56° E 02:26:25 10° NNE
AQUA 4.4 02:18:55 10° N 02:23:24 41° WNW 02:24:27 36° WSW
Cosmos 990 Rocket 3.9 02:23:20 38° SSW 02:25:23 85° ESE 02:30:36 10° NNE
Cosmos 1607 3.9 02:19:39 10° NW 02:26:07 79° WSW 02:32:35 10° SSE
ADEOS II 2.0 02:21:02 10° N 02:26:17 73° WNW 02:28:23 37° SSW
Cosmos 1766 4.2 02:26:32 31° WNW 02:26:32 31° WNW 02:30:01 10° NNW
Cosmos 2263 Rocket 3.5 02:23:53 14° SSE 02:27:52 32° ESE 02:32:46 10° NE
Meteor 1-22 Rocket 4.1 02:27:12 39° SW 02:29:01 61° WNW 02:34:17 10° N
Cosmos 2297 Rocket 3.2 02:27:24 25° W 02:29:35 33° NW 02:34:42 10° N
Cosmos 2219 4.4 02:27:45 22° W 02:29:59 29° NW 02:34:51 10° N
IRS-1D 3.7 02:25:09 10° N 02:30:05 56° WNW 02:31:54 36° SW
Okean 1-7 Rocket 3.4 02:28:36 10° N 02:33:02 79° W 02:35:04 32° S
IRS-1C 4.1 02:30:32 10° NNE 02:35:54 84° WNW 02:38:42 29° SSW
TIMED 4.4 02:33:12 10° NNW 02:37:32 63° WSW 02:39:36 29° S
Meteor 1-28 Rocket 3.1 02:36:22 30° SSE 02:38:09 90° W 02:41:59 10° NNW
Cosmos 1626 2.8 02:35:36 10° NNW 02:38:56 37° W 02:38:56 37° W
Cosmos 2266 Rocket 4.0 02:33:42 10° NNW 02:40:04 73° W 02:45:02 17° S
Cosmos 1655 Rocket 4.1 02:34:46 10° NNW 02:40:52 55° W 02:44:28 24° SSW
Cosmos 2237 Rocket 3.7 02:38:24 10° WNW 02:41:36 19° W 02:41:36 19° W
Cosmos 1470 2.7 02:41:43 41° SSW 02:42:57 69° W 02:46:56 10° N
CZ-4B R/B 4.2 02:38:55 10° N 02:43:16 35° WNW 02:44:50 28° WSW
SL-08 R/B 3.4 02:43:56 19° S 02:47:27 68° WSW 02:52:25 10° NNW
USA 229 DEB 3.6 02:48:34 24° SSW 02:52:42 83° ESE 02:59:34 10° NE
USA 229 3.6 02:48:39 24° SSW 02:52:46 83° SE 02:59:38 10° NE
Cosmos 2098 Rocket 3.8 02:50:17 10° NNW 02:55:02 53° W 02:59:34 17° SSW
NOSS 3 (A) 4.2 02:55:49 56° SW 02:56:17 88° WNW 02:59:08 10° NE
Cosmos 158 Rocket 4.4 02:51:50 10° NNW 02:56:54 42° WSW 03:00:33 18° SSW
NOSS 2-3 (C) 3.8 03:01:07 23° SSW 03:03:42 66° ESE 03:08:31 10° NE
NOSS 3-1 (A) 3.4 03:00:07 21° SSW 03:03:52 72° ESE 03:10:06 10° NE
SJ 16-02 2.7 03:02:10 20° W 03:03:53 26° WNW 03:07:37 10° N
ERBS 2.8 03:00:53 10° WNW 03:03:55 34° SW 03:06:56 10° SSE
Meteor 2-14 Rocket 4.4 02:58:48 10° N 03:04:54 90° E 03:10:58 10° S
CSL-04 DEB 4.3 03:05:04 10° SSE 03:08:59 89° ENE 03:12:56 10° NNW
Cosmos 1455 Rocket 4.1 03:11:32 21° WSW 03:13:25 29° WNW 03:17:18 10° NNW
MSX 4.0 03:08:16 10° NNE 03:14:03 76° ESE 03:19:49 10° S
Cosmos 1809 Rocket 4.5 03:08:06 10° NNW 03:14:06 63° W 03:20:07 10° S
Cosmos 1943 3.6 03:08:35 10° NNW 03:14:12 67° ENE 03:19:47 10° SE
Cosmos 1758 4.1 03:13:24 23° SW 03:15:20 36° WNW 03:19:05 10° N
Cosmos 1626 Rocket 3.5 03:11:04 10° NNW 03:15:20 60° W 03:19:35 10° S
Resurs 1-4 Rocket 4.2 03:15:52 10° NW 03:17:41 12° NW 03:19:30 10° WNW
Spot 4 Rocket 4.1 03:13:29 10° N 03:18:37 65° WNW 03:23:00 14° SSW
Meteor 1-21 Rocket 4.1 03:13:37 10° NNW 03:19:11 77° W 03:24:41 10° S
Cosmos 2227 Rocket 4.0 03:15:24 10° W 03:19:11 19° NW 03:23:05 10° N
SeaSat 1 2.7 03:17:51 10° NNE 03:22:47 70° ESE 03:27:41 10° SSW
Landsat 5 3.2 03:19:51 10° SSE 03:23:43 85° WSW 03:27:45 10° NNW
Cosmos 1461 4.2 03:23:26 16° WSW 03:26:23 32° NW 03:30:30 10° NNE
CZ-2C R/B 2.7 03:22:51 10° N 03:26:45 69° WNW 03:30:09 12° SSW
CZ-2D R/B 3.9 03:24:28 10° N 03:28:17 41° WNW 03:31:10 16° SW
Cosmos 2227 4.3 03:24:45 14° SSW 03:29:47 74° WNW 03:35:35 10° NNE
FALCON 9 DEB 3.0 03:27:29 10° WNW 03:30:58 84° SW 03:34:25 10° SE
ATLAS CENTAUR R/B 3.4 03:28:14 10° S 03:31:39 24° ESE 03:34:54 10° ENE
Cosmos 1340 Rocket 4.2 03:29:56 16° WSW 03:32:01 23° WNW 03:35:16 10° NNW
USA 215 4.1 03:25:58 10° NE 03:32:05 44° NNW 03:38:10 10° W
ATLAS 3B CENTAUR R/B 4.1 03:27:05 13° WSW 03:33:00 22° SSW 03:37:29 10° SSE
Cosmos 1758 Rocket 3.7 03:29:00 10° N 03:33:20 77° E 03:37:38 10° SSE
ERS-2 2.0 03:31:23 10° S 03:34:59 68° WSW 03:38:39 10° NNW
Cosmos 2228 3.7 03:31:54 10° S 03:36:10 58° E 03:40:30 10° NNE
Cosmos 724 4.3 03:31:04 10° NW 03:37:02 66° WSW 03:43:05 10° SSE
Cosmos 1953 2.9 03:35:03 13° SW 03:38:15 39° WNW 03:42:04 10° N
SL-4 R/B 2.2 03:36:34 10° WNW 03:39:39 32° SW 03:42:45 10° SSE
Cosmos 1726 3.1 03:38:38 14° SW 03:41:13 29° WNW 03:44:29 10° NNW
Cosmos 1908 3.2 03:39:27 10° SSW 03:43:20 75° W 03:47:16 10° N
Meteor 1-16 Rocket 4.2 03:39:09 10° SSW 03:44:27 66° WNW 03:49:56 10° N
Cosmos 2285 Rocket 4.1 03:39:56 10° SSW 03:46:15 89° ESE 03:52:34 10° NNE
H-2A R/B 2.4 03:45:34 10° SSW 03:49:26 39° W 03:53:18 10° NNW
SL-16 R/B 3.8 03:47:50 10° WNW 03:50:44 14° W 03:53:38 10° SW
Cosmos 2150 Rocket 4.0 03:45:56 10° SSW 03:51:05 82° WNW 03:56:20 10° NNE
ARIANE 5 R/B 3.9 03:49:46 10° NNW 03:53:51 24° WNW 03:57:56 10° WSW
Cosmos 1825 Rocket 3.5 03:51:34 10° NNW 03:55:56 77° W 04:00:13 10° S
IDEFIX/ARIANE 42P 3.5 03:52:50 10° N 03:57:25 32° WNW 04:01:58 10° SW
CZ-4C R/B 4.0 03:56:16 10° SSW 03:58:53 23° W 04:01:35 10° NW
Cosmos 1328 3.9 03:56:22 10° NNW 04:00:18 56° W 04:04:12 10° S
ADEOS 4.0 03:55:27 10° NNE 04:00:39 66° ESE 04:05:50 10° S
CZ-4B R/B 1.4 03:58:32 10° SSE 04:01:51 83° E 04:05:06 10° N
Cosmos 1953 Rocket 3.8 03:57:27 10° N 04:01:59 83° E 04:06:28 10° S
NOSS 2-3 (E) 4.5 03:58:14 10° WSW 04:02:19 41° NW 04:07:07 10° NNE
USA 267 3.6 03:57:57 10° SSE 04:04:08 45° SW 04:10:21 10° WNW
ADEOS II 4.2 04:03:36 10° NW 04:05:03 11° NW 04:06:29 10° WNW
